Location: Gargali
(41.8333°N, 44.2667°E)
Time: 04:34:19
(UTC+00:00)

Daily predictions for brighter satellites

Satellite Brightness Start Highest point End
(mag) Time Altitude Azimuth Time Altitude Azimuth Time Altitude Azimuth
Cosmos 405 Rocket 3.2 00:03:12 23° WSW 00:04:13 28° WNW 00:06:51 10° NNW
BREEZE-M DEB (TANK) 3.1 00:02:17 10° WNW 00:04:28 19° WSW 00:04:28 19° WSW
SJ 16-02 2.1 00:03:17 19° WSW 00:05:48 35° WNW 00:09:43 10° N
Cosmos 2151 Rocket 3.8 00:03:17 10° NNW 00:07:39 52° W 00:11:36 12° SSW
IDEFIX/ARIANE 42P 4.3 00:09:24 10° NNW 00:12:59 19° WNW 00:16:31 10° WSW
Cosmos 841 Rocket 4.4 00:08:27 10° N 00:13:33 52° ENE 00:18:33 10° SE
Cosmos 1190 Rocket 4.1 00:12:00 15° SSW 00:16:24 70° WNW 00:21:39 10° NNE
Cosmos 2221 Rocket 3.7 00:13:04 14° SSW 00:16:54 62° W 00:21:24 10° N
Cosmos 540 Rocket 4.0 00:12:40 10° NW 00:17:18 37° WSW 00:21:54 10° SSW
Cosmos 1954 Rocket 4.0 00:13:58 13° SSW 00:18:33 80° WNW 00:23:44 10° NNE
Cosmos 1862 3.9 00:17:41 10° S 00:21:04 48° E 00:24:31 10° NNE
ADEOS II 2.1 00:15:57 10° NNE 00:21:13 88° ESE 00:26:26 10° SSW
USA 234 3.6 00:16:05 10° NE 00:22:32 59° SE 00:28:56 10° SSW
Cosmos 1697 Rocket 2.9 00:17:32 10° SSW 00:23:07 72° ESE 00:28:43 10° NNE
Cosmos 2227 Rocket 3.7 00:19:46 10° N 00:25:05 40° ENE 00:30:21 10° SE
Resurs 1-4 Rocket 2.5 00:26:01 10° N 00:31:04 50° WNW 00:36:07 10° SW
USA 281 4.3 00:25:57 10° SE 00:32:12 50° ENE 00:38:30 10° NNW
Sich 1 Rocket 3.9 00:29:02 10° NNW 00:33:26 50° W 00:37:47 10° SSW
Meteor 1-27 4.3 00:28:42 10° NNW 00:34:26 76° W 00:40:13 10° S
Cosmos 2251 Rocket 4.0 00:30:37 11° SW 00:35:28 47° WNW 00:40:39 10° N
Okean 1 Rocket 3.7 00:32:31 10° NNW 00:36:31 37° W 00:40:27 10° SSW
H-2A R/B 2.4 00:32:06 10° N 00:37:12 52° WNW 00:42:08 10° SSW
Cosmos 332 Rocket 4.1 00:37:29 10° SW 00:42:08 53° WNW 00:46:48 10° N
H-2A R/B 2.4 00:39:31 10° S 00:43:16 54° W 00:47:06 10° NNW
Cosmos 2058 2.8 00:43:18 10° S 00:47:09 82° E 00:51:04 10° N
Cosmos 1782 2.7 00:43:44 10° NNW 00:47:10 51° W 00:50:33 10° S
CZ-2C R/B 4.2 00:43:45 10° NE 00:47:58 31° E 00:52:16 10° SSE
SL-4 R/B 4.2 00:47:22 10° NNW 00:49:06 14° N 00:50:48 10° NE
Cosmos 1975 Rocket 3.0 00:48:15 10° S 00:52:33 78° W 00:56:52 10° N
Cosmos 1437 Rocket 2.3 00:51:03 10° NNW 00:54:29 73° W 00:57:52 10° S
NOSS 2-2 (D) 3.8 00:50:58 10° NW 00:54:55 58° WSW 01:00:24 10° SSE
H-2A R/B 3.2 00:51:18 10° NNE 00:55:19 42° E 00:59:22 10° S
Cosmos 2297 Rocket 2.5 00:49:59 10° NW 00:55:25 48° WSW 01:00:47 10° S
BREEZE-M DEB (TANK) 4.2 00:50:00 10° WNW 01:03:16 85° NNE 01:07:08 10° ESE
